Location: Bh?mavarapp?du
(16.7041°N, 80.6518°E)
Time: 06:36:36
(UTC+00:00)

Cosmos 2084 Rocket - Pass Details

Date: 21 April 2021
Orbit: 525 x 655 km, 62.8° (Epoch: 05 May)

Event Time Altitude Azimuth Distance (km) Brightness Sun altitude
Rises 14:11:23 0° 208° (SSW) 2,667 6.9 -18.6°
Reaches altitude 10° 14:13:35 10° 209° (SSW) 1,767 6.0 -19.1°
Maximum altitude 14:17:31 77° 294° (WNW) 540 3.3 -19.9°
Drops below altitude 10° 14:21:27 10° 22° (NNE) 1,759 5.9 -20.8°
Sets 14:23:39 0° 24° (NNE) 2,653 6.8 -21.3°
